Notices

What's New in latest Release from April 7th, 2021:

- Updated Glossary, including Speed of Maximum Gust, and Total Hourly Precipitation

- Updated national and regional climate services offices contacts and prices information

- Addition of station inventory lists for 1981-2010, 1971-2000, and 1961-1990 Normals.

If you haven't already, please take our survey and provide feedback about our website: https://eccc.sondage-survey.ca/f/LanguageSelection.aspx?s=442ca660-fcf1-47c0-95a9-59707d6fd709

Hourly Data Report for January 14, 2004

TORONTO CITY
ONTARIO

43°40'00.000" N
79°24'00.000" W
112.50 m
6158355
71508
XTO

Download Data

Hourly Data (January 2004)
Hourly Data Report for January 14, 2004
TIME
LST
Temp Definition
°C
Dew Point Definition
°C
Rel Hum Definition
%
Precip. Amount Definition
mm

Wind Dir Definition
10's deg

Wind Spd Definition
km/h
Visibility Definition
km
Stn Press Definition
kPa
Hmdx Definition


Wind Chill Definition


Weather Definition


00:00 -19.7 -25.7 59   LegendMM LegendMM LegendMM 101.34     LegendNANA
01:00 -20.1 -26.5 57   LegendMM LegendMM LegendMM 101.32     LegendNANA
02:00 -20.6 -26.5 59   LegendMM LegendMM LegendMM 101.27     LegendNANA
03:00 -20.6 -26.8 58   LegendMM LegendMM LegendMM 101.28     LegendNANA
04:00 -20.7 -27.5 54   LegendMM LegendMM LegendMM 101.23     LegendNANA
05:00 -20.8 -27.8 53   LegendMM LegendMM LegendMM 101.15     LegendNANA
06:00 -20.9 -27.7 54   LegendMM LegendMM LegendMM 101.08     LegendNANA
07:00 -21.0 -28.3 52   LegendMM LegendMM LegendMM 101.02     LegendNANA
08:00 -20.8 -25.4 67   LegendMM LegendMM LegendMM 100.92     LegendNANA
09:00 -20.1 -23.1 77   LegendMM LegendMM LegendMM 100.82     LegendNANA
10:00 -18.8 -21.5 79   LegendMM LegendMM LegendMM 100.76     LegendNANA
11:00 -17.1 -19.7 80   LegendMM LegendMM LegendMM 100.69     LegendNANA
12:00 -15.9 -17.8 85   LegendMM LegendMM LegendMM 100.56     LegendNANA
13:00 -14.9 -16.9 85   LegendMM LegendMM LegendMM 100.36     LegendNANA
14:00 -12.4 -14.3 86   LegendMM LegendMM LegendMM 100.20     LegendNANA
15:00 -11.4 -13.6 84   LegendMM LegendMM LegendMM 100.05     LegendNANA
16:00 -12.7 -15.2 82   LegendMM LegendMM LegendMM 99.96     LegendNANA
17:00 -14.4 -16.0 88   LegendMM LegendMM LegendMM 99.92     LegendNANA
18:00 -14.7 -16.4 87   LegendMM LegendMM LegendMM 99.90     LegendNANA
19:00 -14.9 -16.6 87   LegendMM LegendMM LegendMM 99.85     LegendNANA
20:00 -14.9 -16.7 86   LegendMM LegendMM LegendMM 99.81     LegendNANA
21:00 -14.9 -16.7 86   LegendMM LegendMM LegendMM 99.77     LegendNANA
22:00 -14.8 -16.6 86   LegendMM LegendMM LegendMM 99.81     LegendNANA
23:00 -14.4 -16.2 86   LegendMM LegendMM LegendMM 99.82     LegendNANA

Notes on Data Quality.

Legend

  • E = Estimated
  • M = Missing
  • NA = Not Available*
  • [empty] = Indicates an unobserved value
Date modified: